Location: Fontevrault
(47.1823°N, 0.0493°E)
Time: 09:31:30
(UTC+00:00)

Cosmos 389 Rocket - Pass Details

Date: 16 June 2021
Orbit: 440 x 471 km, 81.1° (Epoch: 26 July)

Event Time Altitude Azimuth Distance (km) Brightness Sun altitude
Rises 21:56:43 0° 1° (N) 2,445 7.2 -14.1°
Reaches altitude 10° 21:59:09 10° 19° (NNE) 1,571 5.8 -14.3°
Maximum altitude 22:01:47 20° 69° (ENE) 1,077 4.2 -14.5°
Enters shadow 22:03:06 17° 100° (E) 1,218 4.2 -14.6°
